Regional Weather Roundup
Issued by NWS Spokane, WA

Home | Current Version | Previous Version | Text Only | Print | Product List | Glossary On
Versions: 1 2 3 4 5 6 7 8 9 10 11 12 13 14 15 16 17 18 19 20 21 22 23 24 25 26 27 28 29 30 31 32 33 34 35 36 37 38 39 40 41 42 43 44 45 46 47 48 49 50
000
NZUS01 KOTX 180110
RWROTX
EASTERN WASHINGTON/NORTHERN IDAHO ROUNDUP
NATIONAL WEATHER SERVICE, SPOKANE WA
500 PM PST WED DEC 17 2014

Note: "fair" indicated few or no clouds below 12,000 feet with no
significant weather and/or obstructions to visibility.

...NORTHEAST WASHINGTON AND NORTHERN IDAHO PANHANDLE...

CITY           SKY/WX    TMP DP  RH WIND       PRES   REMARKS
SPOKANE INTL   CLOUDY    36  33  89 NE7       29.91R
SPOKANE DOWNTO CLOUDY    39  32  76 CALM      29.94R
COEUR D ALENE  CLOUDY    36  30  80 NE7       29.92S
DEER PARK      CLOUDY    35  33  92 N6        29.94R
SANDPOINT      FLURRIES  34  30  86 CALM      29.96R

...SOUTHEAST WASHINGTON AND SOUTHERN IDAHO PANHANDLE...

CITY           SKY/WX    TMP DP  RH WIND       PRES   REMARKS
WALLA WALLA    CLOUDY    37  35  92 CALM      29.92F
PULLMAN/MOSCOW CLOUDY    39  33  79 E10       29.92S
LEWISTON       CLOUDY    42  35  76 SE3       29.93S
LOWELL           N/A     37  34  89 N3        30.00R

...COLUMBIA BASIN...

CITY           SKY/WX    TMP DP  RH WIND       PRES   REMARKS
EPHRATA        CLOUDY    38  35  89 NW7       29.92R
MOSES LAKE     CLOUDY    38  36  92 NW6       29.93R
TRI CITIES     CLOUDY    40  38  93 CALM      29.97R
HERMISTON      CLOUDY    39  36  89 S3        29.96R FOG
PENDLETON      CLOUDY    35  35 100 NW7       29.92R FOG     WCI  29

...EAST SLOPES CASCADES...

CITY           SKY/WX    TMP DP  RH WIND       PRES   REMARKS
THE DALLES     LGT RAIN  41  38  89 CALM      29.97R
YAKIMA         CLOUDY    41  36  82 CALM      29.94R
ELLENSBURG     CLOUDY    37  33  85 NE3       29.92R FOG
WENATCHEE      LGT RAIN  36  34  92 N3        29.95R
OMAK           CLOUDY    33  31  92 CALM      29.95R FOG

...SOUTHERN BRITISH COLUMBIA...

CITY           SKY/WX    TMP DP  RH WIND       PRES   REMARKS
PENTICTON      CLOUDY    36  34  93 CALM      29.95S
CASTLEGAR      FLURRIES  32  30  93 N6        29.99  WCI  26

...WESTERN MONTANA...

CITY           SKY/WX    TMP DP  RH WIND       PRES   REMARKS
MISSOULA       PTCLDY    28  23  81 N3        29.96R

...NEIGHBORING CITIES...

CITY           SKY/WX    TMP DP  RH WIND       PRES   REMARKS
SEATTLE        LGT RAIN  47  43  86 CALM      29.87
CALGARY        PTCLDY    30  19  64 S6        29.78R WCI  24



USA.gov is the U.S. government's official web portal to all federal, state and local government web resources and services.